Location: DARK SKY Beskydy - Park tmavé oblohy, www.darkskybeskydy.cz
(49.4926°N, 18.5016°E)
Time: 00:22:32
(UTC+02:00)

TIGRISAT - Pass Details

Date: 09 August 2024
Orbit: 591 x 668 km, 97.7° (Epoch: 14 September)

Event Time Altitude Azimuth Distance (km) Brightness Sun altitude
Rises 03:08:49 0° 125° (SE) 2,930 ? -18.1°
Reaches altitude 10° 03:11:30 10° 109° (ESE) 2,011 ? -17.8°
Maximum altitude 03:14:40 20° 62° (ENE) 1,450 ? -17.5°
Drops below altitude 10° 03:17:48 10° 15° (NNE) 1,987 ? -17.2°
Sets 03:20:25 0° 359° (N) 2,883 ? -16.9°
